Previsão horária em Abong Mbang

Hoje, 9 Maio, Domingo

Tempo Temperatura Precipitação Vento Pressão Humidade
00:00 +22°C° 0 mm 1 m/s 702 mmHg 98%
01:00 +22°C° 0 mm 1 m/s 702 mmHg 98%
02:00 +22°C° 0 mm 1 m/s 702 mmHg 98%
03:00 +22°C° 0 mm 1 m/s 702 mmHg 98%
04:00 +22°C° 0 mm 1 m/s 702 mmHg 99%
05:00 +20°C° 0 mm 0 m/s 702 mmHg 98%
06:00 +20°C° 0 mm 0 m/s 702 mmHg 98%
07:00 +20°C° 0 mm 0 m/s 702 mmHg 98%
08:00 +20°C° 0 mm 0 m/s 703 mmHg 95%
09:00 +21°C° 0 mm 0 m/s 703 mmHg 92%
10:00 +22°C° 0 mm 0 m/s 703 mmHg 88%
11:00 +24°C° 0.1 mm 1 m/s 703 mmHg 86%
12:00 +25°C° 0.1 mm 1 m/s 702 mmHg 83%
13:00 +25°C° 0.1 mm 1 m/s 702 mmHg 81%
14:00 +25°C° 0 mm 1 m/s 701 mmHg 80%
15:00 +25°C° 0 mm 1 m/s 701 mmHg 79%
16:00 +26°C° 0 mm 1 m/s 700 mmHg 78%
17:00 +23°C° 0 mm 0 m/s 700 mmHg 82%
18:00 +22°C° 0 mm 0 m/s 701 mmHg 87%
19:00 +21°C° 0 mm 0 m/s 701 mmHg 91%
20:00 +20°C° 0.1 mm 0 m/s 701 mmHg 93%
21:00 +20°C° 0.1 mm 0 m/s 701 mmHg 95%
22:00 +20°C° 0.1 mm 0 m/s 702 mmHg 97%
23:00 +20°C° 0.8 mm 0 m/s 702 mmHg 98%

Amanhã, 10 Maio, Segunda-feira

Tempo Temperatura Precipitação Vento Pressão Humidade
00:00 +19°C° 0.8 mm 0 m/s 701 mmHg 98%
01:00 +19°C° 0.8 mm 0 m/s 701 mmHg 98%
02:00 +19°C° 1.3 mm 0 m/s 701 mmHg 99%
03:00 +19°C° 1.3 mm 0 m/s 701 mmHg 99%
04:00 +19°C° 1.3 mm 0 m/s 701 mmHg 99%
05:00 +19°C° 0.3 mm 0 m/s 702 mmHg 99%
06:00 +20°C° 0.3 mm 0 m/s 702 mmHg 99%
07:00 +20°C° 0.3 mm 0 m/s 703 mmHg 98%
08:00 +20°C° 0 mm 0 m/s 703 mmHg 96%
09:00 +21°C° 0 mm 0 m/s 703 mmHg 93%
10:00 +22°C° 0 mm 0 m/s 704 mmHg 90%
11:00 +23°C° 0 mm 0 m/s 703 mmHg 86%
12:00 +25°C° 0 mm 1 m/s 702 mmHg 81%
13:00 +26°C° 0 mm 1 m/s 702 mmHg 76%
14:00 +27°C° 0 mm 1 m/s 701 mmHg 72%
15:00 +25°C° 0 mm 0 m/s 701 mmHg 69%
16:00 +26°C° 0 mm 0 m/s 700 mmHg 65%
17:00 +24°C° 0.1 mm 0 m/s 700 mmHg 73%
18:00 +22°C° 0.1 mm 0 m/s 700 mmHg 81%
19:00 +21°C° 0.1 mm 0 m/s 700 mmHg 89%
20:00 +20°C° 0 mm 0 m/s 701 mmHg 90%
21:00 +20°C° 0 mm 0 m/s 701 mmHg 91%
22:00 +20°C° 0 mm 0 m/s 701 mmHg 91%
23:00 +20°C° 0.1 mm 0 m/s 701 mmHg 92%

Depois de amanhã, 11 Maio, Terça-feira

Tempo Temperatura Precipitação Vento Pressão Humidade
00:00 +20°C° 0.1 mm 0 m/s 701 mmHg 94%
01:00 +19°C° 0.1 mm 0 m/s 701 mmHg 95%
02:00 +19°C° 0.2 mm 0 m/s 701 mmHg 96%
03:00 +19°C° 0.2 mm 0 m/s 701 mmHg 96%
04:00 +19°C° 0.2 mm 0 m/s 701 mmHg 97%
05:00 +19°C° 0 mm 0 m/s 701 mmHg 96%
06:00 +20°C° 0 mm 0 m/s 702 mmHg 95%
07:00 +20°C° 0 mm 0 m/s 702 mmHg 94%
08:00 +23°C° 0 mm 0 m/s 703 mmHg 81%
09:00 +26°C° 0 mm 0 m/s 703 mmHg 69%
10:00 +29°C° 0 mm 0 m/s 704 mmHg 57%
11:00 +31°C° 0 mm 0 m/s 703 mmHg 51%
12:00 +32°C° 0 mm 0 m/s 703 mmHg 45%
13:00 +34°C° 0 mm 0 m/s 702 mmHg 39%
14:00 +33°C° 0 mm 0 m/s 701 mmHg 40%
15:00 +33°C° 0 mm 0 m/s 701 mmHg 41%
16:00 +34°C° 0 mm 1 m/s 700 mmHg 41%
17:00 +32°C° 0 mm 1 m/s 700 mmHg 53%
18:00 +29°C° 0 mm 1 m/s 700 mmHg 64%
19:00 +26°C° 0 mm 1 m/s 700 mmHg 75%
20:00 +25°C° 0.3 mm 1 m/s 701 mmHg 81%
21:00 +24°C° 0.3 mm 1 m/s 701 mmHg 88%
22:00 +21°C° 0.3 mm 0 m/s 701 mmHg 94%
23:00 +23°C° 0.5 mm 1 m/s 701 mmHg 96%

12 Maio, Quarta-feira

Tempo Temperatura Precipitação Vento Pressão Humidade
00:00 +22°C° 0.5 mm 1 m/s 701 mmHg 97%
01:00 +22°C° 0.5 mm 1 m/s 701 mmHg 99%
02:00 +22°C° 0 mm 1 m/s 701 mmHg 99%
03:00 +22°C° 0 mm 1 m/s 701 mmHg 99%
04:00 +21°C° 0 mm 1 m/s 701 mmHg 99%
05:00 +22°C° 0.2 mm 1 m/s 701 mmHg 98%
06:00 +22°C° 0.2 mm 1 m/s 702 mmHg 98%
07:00 +22°C° 0.2 mm 1 m/s 702 mmHg 97%
08:00 +25°C° 0.1 mm 1 m/s 703 mmHg 86%
09:00 +27°C° 0.1 mm 1 m/s 703 mmHg 75%
10:00 +30°C° 0.1 mm 1 m/s 703 mmHg 64%
11:00 +31°C° 0.1 mm 1 m/s 703 mmHg 57%
12:00 +33°C° 0.1 mm 1 m/s 702 mmHg 49%
13:00 +34°C° 0.1 mm 1 m/s 702 mmHg 42%
14:00 +33°C° 0 mm 1 m/s 701 mmHg 45%
15:00 +32°C° 0 mm 1 m/s 701 mmHg 49%
16:00 +31°C° 0 mm 1 m/s 700 mmHg 53%
17:00 +29°C° 0.1 mm 1 m/s 700 mmHg 62%
18:00 +27°C° 0.1 mm 1 m/s 700 mmHg 70%
19:00 +25°C° 0.1 mm 1 m/s 700 mmHg 78%
20:00 +24°C° 0.5 mm 1 m/s 700 mmHg 85%
21:00 +23°C° 0.5 mm 1 m/s 701 mmHg 91%
22:00 +22°C° 0.5 mm 1 m/s 702 mmHg 97%
23:00 +22°C° 0.3 mm 1 m/s 701 mmHg 97%

13 Maio, Quinta-feira

Tempo Temperatura Precipitação Vento Pressão Humidade
00:00 +22°C° 0.3 mm 1 m/s 701 mmHg 98%
01:00 +22°C° 0.3 mm 1 m/s 701 mmHg 98%
02:00 +22°C° 0 mm 1 m/s 701 mmHg 99%
03:00 +22°C° 0 mm 1 m/s 701 mmHg 99%
04:00 +21°C° 0 mm 1 m/s 700 mmHg 99%
05:00 +22°C° 0.2 mm 1 m/s 701 mmHg 98%
06:00 +22°C° 0.2 mm 1 m/s 701 mmHg 98%
07:00 +22°C° 0.2 mm 1 m/s 702 mmHg 98%
08:00 +24°C° 0 mm 1 m/s 702 mmHg 87%
09:00 +27°C° 0 mm 1 m/s 703 mmHg 76%
10:00 +29°C° 0 mm 1 m/s 703 mmHg 64%
11:00 +31°C° 0 mm 1 m/s 702 mmHg 57%
12:00 +32°C° 0 mm 1 m/s 702 mmHg 50%
13:00 +34°C° 0 mm 1 m/s 701 mmHg 43%
14:00 +33°C° 0 mm 1 m/s 700 mmHg 49%
15:00 +31°C° 0 mm 1 m/s 700 mmHg 56%
16:00 +30°C° 0 mm 1 m/s 699 mmHg 62%
17:00 +29°C° 0 mm 1 m/s 699 mmHg 69%
18:00 +27°C° 0 mm 1 m/s 699 mmHg 75%
19:00 +25°C° 0 mm 1 m/s 700 mmHg 82%
20:00 +25°C° 0.1 mm 1 m/s 700 mmHg 84%
21:00 +25°C° 0.1 mm 1 m/s 700 mmHg 85%
22:00 +24°C° 0.1 mm 1 m/s 701 mmHg 87%
23:00 +24°C° 0.5 mm 1 m/s 701 mmHg 90%

14 Maio, Sexta-feira

Tempo Temperatura Precipitação Vento Pressão Humidade
00:00 +21°C° 0.5 mm 0 m/s 701 mmHg 93%
01:00 +20°C° 0.5 mm 0 m/s 701 mmHg 97%
02:00 +20°C° 0.1 mm 0 m/s 701 mmHg 97%
03:00 +20°C° 0.1 mm 0 m/s 700 mmHg 98%
04:00 +20°C° 0.1 mm 0 m/s 700 mmHg 99%
05:00 +22°C° 0.1 mm 1 m/s 701 mmHg 98%
06:00 +22°C° 0.1 mm 1 m/s 701 mmHg 97%
07:00 +23°C° 0.1 mm 1 m/s 701 mmHg 96%
08:00 +25°C° 0.3 mm 1 m/s 702 mmHg 87%
09:00 +27°C° 0.3 mm 1 m/s 702 mmHg 78%
10:00 +29°C° 0.3 mm 1 m/s 702 mmHg 69%
11:00 +31°C° 0 mm 1 m/s 702 mmHg 60%
12:00 +33°C° 0 mm 1 m/s 701 mmHg 52%
13:00 +34°C° 0 mm 1 m/s 701 mmHg 44%
14:00 +33°C° 0 mm 1 m/s 700 mmHg 51%
15:00 +31°C° 0 mm 1 m/s 699 mmHg 58%
16:00 +30°C° 0 mm 1 m/s 699 mmHg 64%
17:00 +28°C° 0.4 mm 1 m/s 699 mmHg 73%
18:00 +26°C° 0.4 mm 1 m/s 699 mmHg 83%
19:00 +22°C° 0.5 mm 0 m/s 699 mmHg 92%
20:00 +22°C° 0.2 mm 0 m/s 699 mmHg 92%
21:00 +22°C° 0.2 mm 0 m/s 700 mmHg 93%
22:00 +22°C° 0.2 mm 0 m/s 701 mmHg 93%
23:00 +22°C° 0.5 mm 0 m/s 700 mmHg 95%
Mostrar mais

Necessitamos do seu Consentimento

A Meteoprog e os seus Fornecedores de Serviços podem armazenar e aceder a dados pessoais como cookies, identificadores do dispositivo ou outras tecnologias semelhantes existentes no seu dispositivo e processar estes dados para personalizar conteúdos e anúncios, assim como funcionalidades nas redes sociais e análise de tráfego.

  • Armazenar e/ou aceder a informações no seu dispositivo

    Os cookies, identificadores do dispositivo ou outras informações podem ser armazenados ou acedidos no seu dispositivo, para os fins acima indicados.

  • Anúncios e conteúdos personalizados, medição de anúncios e conteúdos, dados sobre o público-alvo e desenvolvimento de produtos

    Os anúncios e os conteúdos podem ser personalizados com base num perfil. Podem ser adicionados dados adicionais para uma maior personalização dos anúncios e dos conteúdos. A eficácia dos anúncios e dos conteúdos pode ser medida. Podem ser obtidas informações sobre o público que visualizou os anúncios e os conteúdos. Estes dados podem ser usados para desenvolver ou melhorar sistemas, softwares ou a experiência do utilizador.

Ao clicar em "Eu concordo”, permitirá o uso de cookies, identificadores do dispositivo e web beacons mencionados ou outras tecnologias semelhantes. As configurações do navegador do seu dispositivo podem ser alteradas.

Para certos fins, podem ser invocados interesses legítimos ao invés de consentimento. Pode ler mais informação sobre este assunto na nossa Política de Privacidade e Cookies.